Content
SEND FEEDBACK

Daily
Averages
Monthly
Summary
Switzerland

GENEVA, SWITZERLAND


Home > Europe > Switzerland
Elevation: 1364 feet     Latitude: 46 15N     Longitude: 006 08E

WEATHER
 
SELECT A DAY
Number of Records: 306,285;   Date Range: 7/1/96 - 9/18/14
 
SHARE

PRINT THIS DATA

[ ← Previous Day ]
WEATHER ALMANAC - JANUARY 17, 2013
[ Next Day → ]
[ °C ]   °F
Weather ElementAverageHighLow
Temperature26.4 °F32 °F (2:20 pm)21 °F (7:00 am)
Dewpoint15.7 °F23 °F (12:20 am)11 °F (6:00 am)
Humidity60.8 %80 % (12:20 am)41 % (5:00 pm)
Barometer29.86 in29.98 in (9:00 pm)29.71 in (12:20 am)
Wind Speed9.3 mph16.1 mph (3:00 am)
Weather ElementAverage
Visibility6.9 mi
Wind DirectionNE (46.5 °)

Weather ElementTotal
Precipitation---
Heating Degree Days38.5 (Base 65)
Averaged from 66 records on January 17, 2013
WEATHER CONDITIONS BREAKOUT
WIND DIRECTION BREAKOUT
WEATHER BY HOUR - JANUARY 17, 2013
[ °C ]   °F
Local TimeTemperatureDewpointHumidityBarometerVisibilityWind DirectionWind SpeedGust SpeedPrecipitationEventsConditions
12:20 AM28.4 °F23.0 °F80 %29.71 in6.2 miNNE (30°)8.1 mphMostly Cloudy
12:50 AM26.6 °F21.2 °F80 %29.71 in6.2 miNNE (30°)6.9 mphMostly Cloudy
1:00 AM27.0 °F20.0 °F64 %29.81 in16.0 miNNE (20°)8.1 mphPartly Cloudy
1:20 AM26.6 °F21.2 °F80 %29.74 in6.2 miNNE (30°)8.1 mphMostly Cloudy
1:50 AM24.8 °F17.6 °F74 %29.74 in6.2 miNorth (10°)5.8 mphMostly Cloudy
2:00 AM25.0 °F14.0 °F51 %29.84 inNorth5.8 mph
2:50 AM26.6 °F15.8 °F64 %29.77 in6.2 miNE (40°)15.0 mphPartly Cloudy
3:00 AM26.0 °F15.0 °F50 %29.85 inNE (40°)16.1 mph
3:20 AM26.6 °F15.8 °F64 %29.77 in6.2 miNNE (30°)12.7 mphPartly Cloudy
3:50 AM26.6 °F15.8 °F64 %29.77 in6.2 miNNE (30°)11.5 mphPartly Cloudy
4:20 AM23.0 °F14.0 °F68 %29.77 in6.2 miNorth (360°)6.9 mphMostly Cloudy
4:50 AM23.0 °F12.2 °F63 %29.77 in6.2 miNorth (10°)5.8 mphScattered Clouds
5:00 AM23.0 °F12.0 °F49 %29.88 inNorth (10°)8.1 mph
5:20 AM23.0 °F14.0 °F68 %29.77 in6.2 miNorth (10°)9.2 mphScattered Clouds
5:50 AM21.2 °F12.2 °F68 %29.77 in6.2 miNorth (10°)6.9 mphScattered Clouds
6:00 AM22.0 °F11.0 °F50 %29.89 inNorth (10°)6.9 mph
6:20 AM21.2 °F12.2 °F68 %29.80 in6.2 miNorth (10°)5.8 mphPartly Cloudy
6:50 AM21.2 °F12.2 °F68 %29.80 in6.2 miNorth (360°)4.6 mphPartly Cloudy
7:00 AM21.0 °F12.0 °F55 %29.90 in19.0 miNorth (10°)6.9 mphScattered Clouds
7:20 AM21.2 °F14.0 °F74 %29.80 in6.2 miNorth (10°)6.9 mphPartly Cloudy
7:50 AM23.0 °F14.0 °F68 %29.80 in6.2 miNorth (10°)6.9 mphPartly Cloudy
8:00 AM21.0 °F11.0 °F53 %29.92 inNorth (10°)5.8 mph
8:20 AM21.2 °F12.2 °F68 %29.83 in6.2 miNNE (20°)3.5 mphPartly Cloudy
8:50 AM21.2 °F14.0 °F74 %29.83 in6.2 miNorth (360°)3.5 mphPartly Cloudy
9:00 AM23.0 °F13.0 °F52 %29.95 inNNE (20°)5.8 mph
9:20 AM24.8 °F15.8 °F69 %29.86 in6.2 miNNE (30°)8.1 mphPartly Cloudy
9:50 AM28.4 °F17.6 °F64 %29.86 in6.2 miNNE (30°)11.5 mphPartly Cloudy
10:20 AM28.4 °F19.4 °F69 %29.86 in6.2 miNE (40°)15.0 mphPartly Cloudy
10:50 AM28.4 °F19.4 °F69 %29.86 in6.2 miNE (50°)15.0 mphPartly Cloudy
11:00 AM29.0 °F18.0 °F52 %29.94 inNE (40°)16.1 mph
11:20 AM30.2 °F19.4 °F64 %29.86 in6.2 miNE (50°)16.1 mphPartly Cloudy
11:50 AM30.2 °F19.4 °F64 %29.86 in6.2 miNE (40°)13.8 mphPartly Cloudy
12:00 PM30.0 °F18.0 °F49 %29.94 inNE (40°)13.8 mph
12:20 PM30.2 °F19.4 °F64 %29.86 in6.2 miNE (50°)12.7 mphScattered Clouds
12:50 PM30.2 °F19.4 °F64 %29.86 in6.2 miNE (50°)12.7 mphMostly Cloudy
1:00 PM30.0 °F18.0 °F48 %29.93 in12.0 miNE (50°)16.1 mphPartly Cloudy
1:20 PM30.2 °F19.4 °F64 %29.86 in6.2 miENE (60°)13.8 mphMostly Cloudy
1:50 PM30.2 °F19.4 °F64 %29.83 in6.2 miNE (50°)12.7 mphScattered Clouds
2:00 PM31.0 °F17.0 °F44 %29.91 inENE (60°)15.0 mph
2:20 PM32.0 °F19.4 °F60 %29.83 in6.2 miENE (60°)15.0 mphScattered Clouds
2:50 PM30.2 °F19.4 °F64 %29.83 in6.2 miNE (50°)12.7 mphMostly Cloudy
3:00 PM30.0 °F17.0 °F46 %29.92 inNE (40°)13.8 mph
3:20 PM30.2 °F19.4 °F64 %29.86 in6.2 miNE (40°)11.5 mphMostly Cloudy
3:50 PM30.2 °F17.6 °F60 %29.86 in6.2 miNE (40°)11.5 mphMostly Cloudy
4:20 PM30.2 °F17.6 °F60 %29.86 in6.2 miNNE (30°)8.1 mphMostly Cloudy
4:50 PM30.2 °F17.6 °F60 %29.86 in6.2 miNNE (20°)9.2 mphMostly Cloudy
5:00 PM29.0 °F15.0 °F41 %29.94 inNorth (10°)8.1 mph
5:20 PM28.4 °F15.8 °F59 %29.86 in6.2 miNNE (20°)6.9 mphMostly Cloudy
5:50 PM26.6 °F14.0 °F59 %29.86 in6.2 miNNE (30°)6.9 mphScattered Clouds
6:00 PM27.0 °F13.0 °F42 %29.96 inNNE (20°)6.9 mph
6:20 PM26.6 °F15.8 °F64 %29.89 in6.2 miNNE (20°)5.8 mphPartly Cloudy
6:50 PM26.6 °F14.0 °F59 %29.89 in6.2 miNNE (20°)8.1 mphPartly Cloudy
7:00 PM26.0 °F13.0 °F43 %29.97 in16.0 miNorth (10°)6.9 mphScattered Clouds
7:20 PM26.6 °F14.0 °F59 %29.89 in6.2 miNorth (10°)8.1 mphPartly Cloudy
7:50 PM26.6 °F14.0 °F59 %29.89 in6.2 miNNE (20°)6.9 mphPartly Cloudy
8:00 PM26.0 °F13.0 °F45 %29.97 inNorth (10°)8.1 mph
8:20 PM26.6 °F14.0 °F59 %29.89 in6.2 miNorth (10°)6.9 mphPartly Cloudy
8:50 PM26.6 °F14.0 °F59 %29.89 in6.2 miNNE (20°)8.1 mphPartly Cloudy
9:00 PM26.0 °F12.0 °F42 %29.98 inNNE (20°)9.2 mph
9:20 PM24.8 °F14.0 °F64 %29.89 in6.2 miNNE (20°)8.1 mphPartly Cloudy
9:50 PM24.8 °F14.0 °F64 %29.89 in6.2 miNNE (20°)8.1 mphPartly Cloudy
10:20 PM24.8 °F14.0 °F64 %29.89 in6.2 miNNE (20°)6.9 mphPartly Cloudy
10:50 PM24.8 °F14.0 °F64 %29.86 in6.2 miNorth (10°)5.8 mphPartly Cloudy
11:00 PM25.0 °F13.0 °F47 %29.96 inNorth (10°)8.1 mph
11:20 PM24.8 °F15.8 °F69 %29.86 in6.2 miNorth (10°)8.1 mphPartly Cloudy
11:50 PM24.8 °F15.8 °F69 %29.86 in6.2 miNorth (360°)5.8 mphScattered Clouds
Hourly data recorded from LSGG, located miles away from Geneva, Switzerland







STORIES FROM OUR PARTNERS